Cahokia, IL

1:15 PM CDT on August 26, 2016 (GMT -0500)
Saint Louis Downtown

Weather History for KCPS - January, 2013

Change the Weather History Date:

Tuesday, January 22, 2013

  Actual Average Record
Temperature  
Mean Temperature 16 °F -  
Max Temperature 19 °F 51 °F 72 °F (1999)
Min Temperature 12 °F 31 °F 4 °F (1959)
Degree Days  
Heating Degree Days 50    
Moisture  
Dew Point 5 °F    
Average Humidity 64    
Maximum Humidity 84    
Minimum Humidity 43    
Precipitation  
Precipitation 0.00 in - - ()
Sea Level Pressure  
Sea Level Pressure 30.44 in    
Wind  
Wind Speed 5 mph (NW)    
Max Wind Speed 12 mph    
Max Gust Speed -    
Visibility 9 miles    
Events Snow    
Averages and records for this station are not official NWS values.
T = Trace of Precipitation, MM = Missing Value Source: NWS Daily Summary

Daily Weather History Graph

Daily Weather History Graph

Search for Another Location

Airport or City:

Trip Planner

Search our weather history database for the weather conditions in past years. The results will help you decide how hot, cold, wet, or windy it might be!

Date:

Astronomy

Jan. 22, 2013 Rise Set
Actual Time 7:13 AM CST 5:11 PM CST
Civil Twilight 6:44 AM CST 5:40 PM CST
Nautical Twilight 6:12 AM CST 6:12 PM CST
Astronomical Twilight 5:41 AM CST 6:44 PM CST
Moon 1:35 PM CST (1/22) 3:34 AM CST (1/22)
Length of Visible Light 10h 55m
Length of Day
9h 58m
Waxing Gibbous, 83% of the Moon is Illuminated
Jan 22
Waxing Gibbous
Jan 26
Full
Feb 3
Last Quarter
Feb 10
New
Feb 17
First Quarter

Hourly Weather History & Observations

Time (CST) Temp. Windchill Dew Point Humidity Pressure Visibility Wind Dir Wind Speed Gust Speed Precip Events Conditions
12:53 AM 16.0 °F 6.3 °F -0.9 °F 47% 30.41 in 10.0 mi NNW 6.9 mph - N/A   Clear
1:53 AM 16.0 °F 5.3 °F -0.9 °F 47% 30.42 in 10.0 mi NW 8.1 mph - N/A   Clear
2:53 AM 16.0 °F 2.9 °F -2.9 °F 43% 30.43 in 10.0 mi NNW 11.5 mph - N/A   Clear
3:53 AM 15.1 °F 2.5 °F -2.9 °F 45% 30.43 in 10.0 mi NW 10.4 mph - N/A   Mostly Cloudy
4:53 AM 14.0 °F 1.2 °F -0.9 °F 52% 30.44 in 10.0 mi NNW 10.4 mph - N/A   Partly Cloudy
5:53 AM 14.0 °F 2.9 °F -2.9 °F 47% 30.46 in 10.0 mi NW 8.1 mph - N/A   Mostly Cloudy
6:53 AM 14.0 °F 5.1 °F -0.9 °F 52% 30.45 in 10.0 mi NNE 5.8 mph - N/A   Mostly Cloudy
7:53 AM 15.1 °F 7.7 °F -0.9 °F 49% 30.48 in 10.0 mi North 4.6 mph - N/A   Overcast
8:53 AM 15.1 °F - -0.9 °F 49% 30.50 in 10.0 mi Calm Calm - N/A   Overcast
9:53 AM 16.0 °F - -0.9 °F 47% 30.50 in 10.0 mi Calm Calm - N/A   Overcast
10:53 AM 17.1 °F 8.7 °F -2.0 °F 43% 30.52 in 10.0 mi WNW 5.8 mph - N/A   Overcast
11:36 AM 17.6 °F 9.3 °F 3.2 °F 53% 30.49 in 2.5 mi West 5.8 mph - 0.00 in Snow Light Snow
11:53 AM 16.0 °F 10.4 °F 6.1 °F 65% 30.50 in 1.2 mi West 3.5 mph - 0.00 in Snow Light Snow
12:53 PM 17.1 °F - 9.0 °F 71% 30.46 in 1.2 mi Calm Calm - 0.00 in Snow Light Snow
1:44 PM 15.8 °F - 10.4 °F 79% 30.42 in 3.0 mi Calm Calm - 0.00 in Snow Light Snow
1:53 PM 16.0 °F - 10.0 °F 77% 30.44 in 4.0 mi Calm Calm - 0.00 in Snow Light Snow
2:14 PM 17.6 °F - 8.6 °F 68% 30.42 in 10.0 mi Calm Calm - 0.00 in   Overcast
2:40 PM 17.6 °F - 10.4 °F 73% 30.42 in 10.0 mi Calm Calm - 0.00 in   Overcast
2:53 PM 18.0 °F - 10.0 °F 71% 30.45 in 10.0 mi Calm Calm - 0.00 in   Overcast
3:02 PM 17.6 °F - 10.4 °F 73% 30.42 in 10.0 mi Calm Calm - N/A   Overcast
3:09 PM 17.6 °F - 10.4 °F 73% 30.42 in 10.0 mi Calm Calm - N/A   Overcast
3:53 PM 18.0 °F - 10.0 °F 71% 30.43 in 10.0 mi Calm Calm - N/A   Overcast
4:53 PM 18.0 °F - 10.0 °F 71% 30.42 in 10.0 mi Calm Calm - N/A   Overcast
5:53 PM 18.0 °F 12.7 °F 10.0 °F 71% 30.41 in 10.0 mi ENE 3.5 mph - N/A   Overcast
6:53 PM 19.0 °F - 10.0 °F 68% 30.42 in 10.0 mi Calm Calm - N/A   Overcast
7:53 PM 18.0 °F - 10.0 °F 71% 30.41 in 10.0 mi Calm Calm - N/A   Mostly Cloudy
8:53 PM 14.0 °F - 8.1 °F 77% 30.41 in 10.0 mi Calm Calm - N/A   Clear
9:53 PM 12.9 °F - 9.0 °F 84% 30.41 in 10.0 mi Calm Calm - N/A   Clear
10:53 PM 14.0 °F - 10.0 °F 84% 30.42 in 10.0 mi Calm Calm - N/A   Clear
11:53 PM 12.9 °F - 9.0 °F 84% 30.42 in 8.0 mi Calm Calm - N/A   Clear